Location: Stara Lesna
(49.1528°N, 20.2911°E)
Time: 09:54:40
(UTC+02:00)

Cosmos 540 Rocket - Pass Details

Date: 13 July 2020
Orbit: 740 x 753 km, 74.1° (Epoch: 06 August)

Event Time Altitude Azimuth Distance (km) Brightness Sun altitude
Rises 03:52:21 0° 338° (NNW) 3,199 7.1 -7.7°
Reaches altitude 10° 03:54:45 10° 342° (NNW) 2,273 6.4 -7.4°
Maximum altitude 03:59:51 60° 63° (ENE) 855 4.2 -6.9°
Drops below altitude 10° 04:04:56 10° 144° (SE) 2,266 5.9 -6.3°
Sets 04:07:19 0° 148° (SSE) 3,188 6.6 -6.0°
